[[{"header":{"parameterUnit":"m.s-1","parameterCategory":1,"la1":30.2991,"la2":30.254,"lo1":-89.0895,"lo2":-89.0444,"dy":0.0017,"dx":0.0017,"nx":28,"ny":28,"refTime":"2025-04-26T21:00:00:Z","depth":0,"parameterNumber":2,"parameterNumberName":"U-component_of_WINDS"},"data":[0,0,0,0,0,0,0,0,0,0,0,0,0,0,0,0,0,0,0,0,0,0,0,0,0,0,0,0,0,0,0,0,0,0,0,0,0,0,0,0,0,0,0,0,0,0,0,0,0,0,0,0,0,0,0,0,0,0,0.962,0.9621,0,0.9731,0.9732,0.9733,0.9763,0.9762,0.9761,0.9761,0.9875,0.9878,0.9882,0,0,0,0,0,0,0,0,0,0,0,0,0,0.9432,0.9435,0.962,0.9621,0.9622,0.9731,0.9732,0.9734,0.9763,0.9762,0.9761,0.9761,0.9874,0.9878,0.9882,0,0,0,0,0,0,0,0,0,0,0,0,0,0.9525,0.9436,0.9619,0.965,0.9654,0.973,0.9732,0.9734,0.9763,0.9762,0.9761,0.976,0.9872,0.9878,0.9883,0.9937,0,0,0.99,0.9902,0,0,0,0,0,0,0,0,0.952,0.9532,0.9644,0.9648,0.9652,0.9732,0.9708,0.9802,0.9763,0.9722,0.9761,0.976,0.9828,0.9837,0.986,0.9942,0.9947,0.99,0.9904,0.9906,0.9907,0,0,0,0,0,0,0,0.9513,0.9527,0.9664,0.9646,0.9651,0.9658,0.967,0.9726,0.9779,0.9725,0.9728,0.974,0.983,0.9855,0.9863,0.9949,0.99,0.9905,0.9908,0.991,1.0079,1.008,0,0,0,0,0,0,0.9502,0.9522,0.966,0.9667,0.9582,0.9662,0.9676,0.9707,0.9779,0.9788,0.9741,0.9741,0.9846,0.9857,0.9867,0.9934,0.9906,0.9911,0.9914,1.0078,1.0079,1.0081,0,0,0,0,0,0,0.9497,0.9514,0.9656,0.9595,0.9614,0.9666,0.9702,0.971,0.9735,0.9791,0.98,0.9756,0.9846,0.9859,0.9919,0.9939,0.9913,0.9918,1.0077,1.0078,1.008,1.0069,0,0,0,0,0,0,0.9492,0.9512,0.9533,0.9595,0.9617,0.9706,0.9703,0.9713,0.9744,0.9746,0.9808,0.9817,0.9846,0.9911,0.9924,0.9946,0.9923,1.0075,1.0077,1.008,1.0068,1.007,1.0072,0,0,0,0,0,0.9485,0.9526,0.9534,0.9551,0.9645,0.9707,0.9719,0.9751,0.9746,0.9767,0.9803,0.9815,0.9934,0.9916,0.9932,0.9955,1.0074,1.0077,1.0079,1.0067,1.0069,1.0072,0,0,0,0,0,0,0.9465,0.9535,0.9545,0.9607,0.9651,0.9712,0.974,0.9754,0.98,0.9799,0.9838,0.9851,0.9908,0.9938,0.9917,1.0011,1.0004,1.001,0.9989,0.9992,0.9994,0.9986,0.9927,0,0,0,0,0,0.9468,0.9513,0.9571,0.962,0.9642,0.9687,0.9715,0.9736,0.9783,0.9802,0.9842,0.9887,0.9935,0.9965,1.0012,1.0072,1.0086,1.0096,1.0098,1.0099,1.0104,1.0137,1.0142,1.009,1.009,1.009,0,0,0.9474,0.9518,0.9544,0.9617,0.9654,0.9699,0.9702,0.975,0.9784,0.9809,0.9868,0.9899,0.9951,1.0011,1.0039,1.0037,1.0121,1.0103,1.0103,1.0107,1.014,1.0145,1.0149,1.0091,1.0091,1.0091,0,0,0.9508,0.9546,0.9591,0.9627,0.9682,0.9712,0.9722,0.9781,0.9802,0.9862,0.9881,0.9922,1.0003,1.004,1.0069,1.0115,1.0128,1.013,1.0141,1.0172,1.0176,1.018,1.0196,1.0201,1.0134,1.0134,1.0134,0,0.9509,0.9578,0.9612,0.9659,0.969,0.9715,0.976,0.9793,0.9861,0.9882,0.9879,0.998,1.0018,1.0086,1.0097,1.012,1.0133,1.0123,1.0173,1.0177,1.0181,1.0197,1.0203,1.0134,1.0134,1.0134,1.0134,0,0.9576,0.9623,0.9653,0.9717,0.9752,0.9797,0.9837,0.9868,0.9886,0.9916,0.9975,1.0021,1.0077,1.0094,1.0113,1.0165,1.0162,1.0166,1.016,1.0185,1.0201,1.0207,1.0134,1.0134,1.0134,1.0134,0,0,0.9601,0.9683,0.9693,0.9721,0.9784,0.9821,0.9867,0.9922,0.9947,0.9993,1.0032,1.0099,1.0103,1.0136,1.0158,1.0186,1.0219,1.0186,1.0188,1.019,1.0278,1.0274,1.0281,1.0228,1.0229,1.023,1.0273,0,0.9642,0.9726,0.9757,0.9826,0.987,0.9893,0.9933,0.9975,1.0004,1.0045,1.0077,1.0124,1.0126,1.0146,1.0174,1.0209,1.0237,1.0206,1.0264,1.0266,1.025,1.0289,1.0286,1.0324,1.028,1.0281,1.0281,0,0.9702,0.9748,0.982,0.9876,0.9895,0.9931,0.9983,1.0022,1.007,1.0089,1.0125,1.0145,1.0194,1.0185,1.0253,1.0231,1.0257,1.0277,1.0279,1.0286,1.0275,1.0295,1.0337,1.0343,1.0291,1.0291,1.029,0,0.9712,0.9791,0.9845,0.9869,0.9936,0.996,0.9989,1.0036,1.0066,1.0111,1.0131,1.0182,1.0209,1.0247,1.0281,1.0271,1.0345,1.0339,1.0361,1.036,1.0375,1.0374,1.0421,1.0393,1.0393,1.0392,1.0392,0,0.9754,0.9798,0.985,0.9883,0.9932,0.9967,1.0014,1.0045,1.0086,1.0125,1.0148,1.0184,1.0226,1.0267,1.0293,1.0344,1.0357,1.0373,1.038,1.0371,1.0369,1.0388,1.0386,1.0394,1.0394,1.0393,1.0393,0,0.9773,0.981,0.987,0.9928,0.9943,0.9977,1.0026,1.0058,1.0088,1.0137,1.015,1.0196,1.0246,1.0283,1.0347,1.0365,1.0419,1.0426,1.0403,1.0406,1.0426,1.0423,1.0487,1.0496,1.0461,1.0462,1.0462,0,0.9798,0.9831,0.9893,0.992,0.9949,0.9993,1.0024,1.006,1.0091,1.0147,1.0173,1.0224,1.0266,1.0344,1.0384,1.0433,1.044,1.0459,1.0448,1.0438,1.044,1.0437,1.044,1.0461,1.0461,1.0461,1.0461,0,0.9837,0.9853,0.9897,0.9947,0.9983,1.0024,1.0066,1.0087,1.013,1.0164,1.0214,1.0247,1.0312,1.0362,1.0415,1.0445,1.046,1.0464,1.0472,1.0463,1.0448,1.0456,1.0406,1.0463,1.0463,1.0462,1.0462,1.0462,0.9859,0.9889,0.9937,0.9985,1.002,1.0058,1.0091,1.0124,1.0167,1.0222,1.0241,1.0293,1.0339,1.0412,1.0441,1.0482,1.0482,1.0494,1.0496,1.0498,1.0497,1.0442,1.0492,1.0492,1.0492,1.0492,1.0492,0,0.9898,0.993,0.9973,1.003,1.0068,1.0079,1.0125,1.0155,1.0201,1.0243,1.0284,1.0341,1.039,1.0433,1.0483,1.0507,1.0516,1.0519,1.0518,1.0524,1.0495,1.0483,1.0512,1.0512,1.0512,1.0512,1.0512,1.0512,0.9923,0.9975,0.9997,1.0066,1.0098,1.0149,1.0174,1.0209,1.0243,1.0306,1.0346,1.0374,1.0416,1.0469,1.0514,1.0525,1.0542,1.0544,1.0557,1.0529,1.0526,1.0524,1.0513,1.0547,1.0547,1.0582,1.0583,1.0583]},{"header":{"parameterUnit":"m.s-1","parameterCategory":1,"la1":30.2991,"la2":30.254,"lo1":-89.0895,"lo2":-89.0444,"dy":0.0017,"dx":0.0017,"nx":28,"ny":28,"refTime":"2025-04-26T21:00:00:Z","depth":0,"parameterNumber":3,"parameterNumberName":"V-component_of_WINDS"},"data":[0,0,0,0,0,0,0,0,0,0,0,0,0,0,0,0,0,0,0,0,0,0,0,0,0,0,0,0,0,0,0,0,0,0,0,0,0,0,0,0,0,0,0,0,0,0,0,0,0,0,0,0,0,0,0,0,0,0,2.8555,2.8554,0,2.8469,2.8468,2.8467,2.8361,2.836,2.8358,2.8356,2.8268,2.8267,2.8266,0,0,0,0,0,0,0,0,0,0,0,0,0,2.8627,2.8626,2.8555,2.8554,2.8553,2.8469,2.8468,2.8467,2.8362,2.836,2.8358,2.8356,2.8268,2.8267,2.8266,0,0,0,0,0,0,0,0,0,0,0,0,0,2.8574,2.8626,2.8556,2.8491,2.8484,2.847,2.8468,2.8467,2.8362,2.836,2.8357,2.8355,2.8268,2.8267,2.8266,2.8308,0,0,2.8262,2.8261,0,0,0,0,0,0,0,0,2.8577,2.8571,2.8501,2.8495,2.8487,2.8423,2.8461,2.8413,2.8363,2.8408,2.8356,2.8354,2.8321,2.8316,2.8305,2.8304,2.83,2.8262,2.8261,2.8261,2.826,0,0,0,0,0,0,0,2.8581,2.8574,2.8521,2.85,2.8492,2.8465,2.8455,2.8451,2.838,2.8404,2.8396,2.8388,2.8317,2.8306,2.8302,2.8299,2.8262,2.8261,2.826,2.826,2.8326,2.8329,0,0,0,0,0,0,2.8594,2.8578,2.8524,2.8519,2.8527,2.8466,2.8454,2.8447,2.838,2.8367,2.839,2.8383,2.831,2.8304,2.8299,2.8342,2.8261,2.8259,2.8259,2.8324,2.8327,2.8329,0,0,0,0,0,0,2.8596,2.859,2.8527,2.8546,2.8536,2.8467,2.8459,2.8446,2.8435,2.8369,2.8355,2.8392,2.8307,2.83,2.8306,2.8338,2.8259,2.8258,2.8321,2.8325,2.8328,2.8432,0,0,0,0,0,0,2.8599,2.8592,2.8608,2.8547,2.8535,2.8537,2.8461,2.8446,2.8433,2.8424,2.8367,2.8356,2.8305,2.8309,2.8305,2.8335,2.8257,2.8318,2.8322,2.8327,2.8425,2.8439,2.845,0,0,0,0,0,2.8602,2.8641,2.8609,2.8603,2.8554,2.854,2.8533,2.8474,2.8437,2.8452,2.8409,2.8357,2.8335,2.831,2.8305,2.8335,2.8315,2.8321,2.8327,2.842,2.8436,2.845,0,0,0,0,0,0,2.8707,2.8632,2.8596,2.8616,2.8585,2.8522,2.8539,2.8493,2.8472,2.8464,2.8391,2.8379,2.8394,2.8365,2.8338,2.8372,2.8318,2.8323,2.839,2.8405,2.8417,2.8424,2.8256,0,0,0,0,0,2.8732,2.8727,2.8662,2.8686,2.8672,2.8609,2.86,2.8557,2.8522,2.8508,2.8465,2.8433,2.8418,2.841,2.8393,2.8421,2.8406,2.8439,2.8451,2.8462,2.8467,2.8477,2.8491,2.8348,2.8348,2.8348,0,0,2.8785,2.8743,2.8745,2.8706,2.8677,2.8672,2.8598,2.8597,2.8593,2.8508,2.851,2.8478,2.8436,2.8453,2.8458,2.843,2.8503,2.8469,2.8478,2.8477,2.8485,2.8498,2.851,2.8352,2.8351,2.835,0,0,2.8879,2.8847,2.8864,2.8836,2.8792,2.8749,2.8753,2.8696,2.8672,2.8673,2.8609,2.8602,2.8579,2.8552,2.8535,2.8617,2.8568,2.8613,2.8678,2.869,2.8701,2.8711,2.8739,2.875,2.8619,2.8619,2.8619,0,2.895,2.8941,2.8878,2.888,2.8865,2.8787,2.8803,2.8779,2.8732,2.8723,2.8691,2.8659,2.8626,2.8634,2.8654,2.8643,2.8645,2.8619,2.8705,2.8714,2.8722,2.8748,2.8759,2.8625,2.8624,2.8623,2.8623,0,2.903,2.9025,2.9043,2.9,2.8986,2.8995,2.8933,2.8926,2.8885,2.8845,2.8847,2.8804,2.8776,2.8775,2.8735,2.8777,2.8761,2.8718,2.8662,2.8742,2.8765,2.8775,2.8633,2.8631,2.8629,2.8628,0,0,2.9188,2.9109,2.9116,2.9095,2.9041,2.9036,2.9041,2.9013,2.9009,2.8979,2.8981,2.8962,2.8922,2.8903,2.8858,2.8868,2.8935,2.8824,2.8822,2.8845,2.8978,2.901,2.9022,2.8902,2.8904,2.8905,2.8981,0,2.9271,2.9276,2.9218,2.9238,2.9232,2.9158,2.9162,2.9129,2.9091,2.908,2.9038,2.9026,2.8974,2.8962,2.8969,2.8925,2.896,2.8919,2.8902,2.8902,2.8914,2.9035,2.9069,2.9142,2.8989,2.8991,2.8992,0,2.9369,2.9344,2.9364,2.9307,2.9303,2.9308,2.9277,2.9268,2.9228,2.92,2.9178,2.9127,2.9127,2.9074,2.9072,2.9045,2.9035,2.9012,2.9013,2.9009,2.8952,2.9033,2.9164,2.9175,2.9006,2.9005,2.9004,0,2.9481,2.9453,2.946,2.9445,2.938,2.9384,2.9357,2.9315,2.9302,2.9275,2.9266,2.924,2.9226,2.9206,2.9148,2.9116,2.9153,2.9095,2.9128,2.913,2.9139,2.9139,2.927,2.9134,2.9134,2.9134,2.9133,0,2.958,2.9594,2.951,2.9515,2.9528,2.9461,2.9476,2.9442,2.9405,2.9401,2.9335,2.9332,2.9257,2.9246,2.9201,2.9205,2.9199,2.9176,2.9163,2.9181,2.9184,2.9173,2.9166,2.9136,2.9136,2.9135,2.9135,0,2.9707,2.9652,2.9655,2.9593,2.9577,2.959,2.9536,2.9537,2.9496,2.9491,2.9486,2.9421,2.9404,2.9344,2.9313,2.9282,2.9301,2.9277,2.9314,2.9306,2.9342,2.934,2.947,2.9483,2.934,2.9341,2.9343,0,2.9774,2.9783,2.9722,2.9715,2.969,2.968,2.9666,2.96,2.9588,2.9543,2.9549,2.9527,2.9506,2.9482,2.9431,2.9406,2.9381,2.9429,2.9377,2.9394,2.9381,2.9381,2.9381,2.944,2.9442,2.9443,2.9445,0,2.9897,2.9869,2.9852,2.9825,2.9811,2.9786,2.9758,2.9755,2.9682,2.9672,2.9653,2.9637,2.9604,2.9583,2.9549,2.952,2.947,2.9461,2.9467,2.9486,2.9506,2.9494,2.9344,2.9459,2.9457,2.9456,2.9455,2.9455,2.9996,3.0,2.9957,2.994,2.9912,2.9887,2.9884,2.9842,2.9826,2.9795,2.9757,2.9743,2.9701,2.9651,2.9626,2.9613,2.9586,2.9595,2.9597,2.96,2.9609,2.9509,2.9607,2.9606,2.9606,2.9605,2.9605,0,3.0115,3.0084,3.0069,3.0031,3.0017,2.9971,2.9937,2.9929,2.9918,2.9883,2.9863,2.9842,2.982,2.9767,2.974,2.974,2.9716,2.9735,2.9734,2.9728,2.9635,2.9632,2.9754,2.9754,2.9754,2.9754,2.9754,2.9754,3.0175,3.018,3.0147,3.0136,3.0104,3.0091,3.0075,3.0051,3.0023,3.0002,2.9984,2.9949,2.9907,2.9876,2.9853,2.9838,2.9831,2.9857,2.9835,2.9749,2.9735,2.9721,2.9718,2.9856,2.9856,2.9928,2.9929,2.9929]}]]